N5YHM-13 Weather Reports


Display with metric or nautical units.
time (UTC)temp
F
wind
direction
speed
MPH
gust
MPH
rain 1hr
in
rain 24hr
in
rain mn
in
humidity
%
barometer
mb
20260504150924 70 249 0.0 0.0 0.00 0.00 0.00 63 1020.1
20260504150421 70 264 0.0 2.0 0.00 0.00 0.00 66 1020.1
20260504140846 65 221 0.0 0.0 0.00 0.00 0.00 77 1020.0
20260504140343 65 221 0.0 0.0 0.00 0.00 0.00 78 1020.1
20260504130811 57 221 0.0 0.0 0.00 0.00 0.00 98 1020.1
20260504130307 56 221 0.0 0.0 0.00 0.00 0.00 98 1020.2
20260504120231 51 220 0.0 0.0 0.00 0.00 0.00 99 1019.6
20260504110658 50 220 0.0 0.0 0.00 0.00 0.00 98 1019.5
20260504110154 50 220 0.0 0.0 0.00 0.00 0.00 98 1019.4
20260504100119 51 220 0.0 0.0 0.00 0.00 0.00 98 1019.5
20260504081512 53 220 0.0 0.0 0.00 0.00 0.00 98 1019.7
20260504081007 53 220 0.0 0.0 0.00 0.00 0.00 98 1019.8
20260504080504 53 221 0.0 0.0 0.00 0.00 0.00 98 1019.8
20260504050305 56 221 0.0 0.0 0.00 0.00 0.00 97 1020.7
20260504045802 56 221 0.0 0.0 0.00 2.65 2.65 97 1020.8
20260504045257 56 221 0.0 0.0 0.00 2.65 2.65 96 1020.8
20260504044755 56 221 0.0 0.0 0.00 2.65 2.65 96 1020.9
20260504044252 56 221 0.0 0.0 0.00 2.65 2.65 96 1021.0
20260504043749 56 221 0.0 0.0 0.00 2.65 2.65 96 1020.8
20260504043246 56 221 0.0 0.0 0.00 2.65 2.65 96 1020.8
20260504042744 56 221 0.0 0.0 0.00 2.65 2.65 96 1020.9
20260504042240 56 221 0.0 0.0 0.00 2.65 2.65 96 1020.9
20260504041736 56 221 0.0 0.0 0.00 2.65 2.65 96 1020.8
20260504041232 56 221 0.0 0.0 0.00 2.65 2.65 95 1021.0
20260504040729 57 221 0.0 0.0 0.00 2.65 2.65 95 1020.7
20260504040226 57 221 0.0 0.0 0.00 2.65 2.65 95 1021.1
20260504035722 57 221 0.0 0.0 0.00 2.65 2.65 95 1021.0
20260504035220 57 221 0.0 0.0 0.00 2.65 2.65 95 1020.9
20260504034717 57 221 0.0 0.0 0.00 2.65 2.65 95 1020.8
20260504034213 57 221 0.0 0.0 0.00 2.65 2.65 94 1020.8
20260504033706 58 221 0.0 0.0 0.00 2.65 2.65 94 1021.0
20260504033203 58 221 0.0 0.0 0.00 2.65 2.65 93 1020.9
20260504032700 58 221 0.0 0.0 0.00 2.65 2.65 93 1020.8
20260504032157 58 221 0.0 0.0 0.00 2.65 2.65 93 1020.9
20260504031654 58 221 0.0 0.0 0.00 2.65 2.65 93 1021.0
20260504031150 58 221 0.0 0.0 0.00 2.65 2.65 92 1020.9
20260504030647 58 221 0.0 0.0 0.00 2.65 2.65 92 1021.0
20260504030143 59 221 0.0 0.0 0.00 2.65 2.65 91 1020.8
20260504025640 59 221 0.0 0.0 0.00 2.65 2.65 91 1021.0
20260504025137 59 221 0.0 0.0 0.00 2.65 2.65 90 1020.7
20260504024634 59 221 0.0 0.0 0.00 2.65 2.65 89 1021.0
20260504024130 60 221 0.0 0.0 0.00 2.65 2.65 88 1020.8
20260504023628 60 221 0.0 0.0 0.00 2.65 2.65 89 1020.9
20260504023124 60 221 0.0 0.0 0.00 2.65 2.65 89 1020.6
20260504022620 60 221 0.0 0.0 0.00 2.65 2.65 88 1020.8
20260504022115 60 221 0.0 0.0 0.00 2.65 2.65 87 1020.7
20260504021614 61 221 0.0 0.0 0.00 2.65 2.65 85 1020.5
20260504021110 61 221 0.0 0.0 0.00 2.65 2.65 84 1020.6
20260504020607 61 221 0.0 0.0 0.00 2.65 2.65 84 1020.4
20260504015600 62 221 0.0 0.0 0.00 2.65 2.65 82 1020.0
20260504015055 62 221 0.0 0.0 0.00 2.65 2.65 81 1020.1
20260504014552 63 221 0.0 0.0 0.00 2.65 2.65 80 1020.2
20260504014044 63 221 0.0 0.0 0.00 2.65 2.65 79 1020.1
20260504013541 63 221 0.0 0.0 0.00 2.65 2.65 79 1020.2
20260504013038 64 221 0.0 0.0 0.00 2.65 2.65 78 1019.9
20260504012535 64 221 0.0 0.0 0.00 2.65 2.65 78 1020.1
20260504012027 64 221 0.0 0.0 0.00 2.65 2.65 77 1020.0
20260504011523 64 221 0.0 0.0 0.00 2.65 2.65 76 1020.1
20260504011020 65 221 0.0 0.0 0.00 2.65 2.65 74 1019.8
20260504010515 65 221 0.0 0.0 0.00 2.65 2.65 74 1019.9
20260504010011 65 221 0.0 0.0 0.00 2.65 2.65 73 1019.7
20260504005509 66 221 0.0 0.0 0.00 2.65 2.65 72 1019.7
20260504005006 66 221 0.0 0.0 0.00 2.65 2.65 72 1019.8
20260504004504 67 221 0.0 0.0 0.00 2.65 2.65 69 1020.0
20260504004000 67 221 0.0 0.0 0.00 2.65 2.65 70 1019.8
20260504003456 67 221 0.0 0.0 0.00 2.65 2.65 68 1019.7
20260504002954 68 221 0.0 0.0 0.00 2.65 2.65 67 1019.5
20260504002450 68 221 0.0 0.0 0.00 2.65 2.65 66 1019.7
20260504001948 69 221 0.0 0.0 0.00 2.65 2.65 64 1019.6
20260504001445 69 221 0.0 0.0 0.00 2.65 2.65 62 1019.8
20260504000942 70 221 0.0 0.0 0.00 2.65 2.65 61 1019.8
20260504000439 70 221 0.0 0.0 0.00 2.65 2.65 56 1019.6
20260503235936 71 221 0.0 0.0 0.00 2.65 2.65 58 1019.6
20260503235434 71 221 0.0 0.0 0.00 2.65 2.65 54 1019.6
20260503234931 71 221 0.0 0.0 0.00 2.65 2.65 56 1019.7
20260503234428 72 221 0.0 0.0 0.00 2.65 2.65 54 1019.8
20260503233926 72 221 0.0 0.0 0.00 2.65 2.65 55 1019.6
20260503233423 73 221 0.0 1.0 0.00 2.65 2.65 52 1019.8
20260503232919 73 221 0.0 0.0 0.00 2.65 2.65 52 1019.8
20260503232416 73 221 0.0 0.0 0.00 2.65 2.65 52 1019.9
20260503231914 73 221 0.0 0.0 0.00 2.65 2.65 51 1019.8
20260503231411 73 221 0.0 0.0 0.00 2.65 2.65 49 1020.0
20260503230907 73 221 0.0 0.0 0.00 2.65 2.65 49 1019.7
20260503230404 73 221 0.0 0.0 0.00 2.65 2.65 49 1019.8
20260503225902 73 221 0.0 0.0 0.00 2.65 2.65 49 1019.9
20260503225357 73 221 0.0 0.0 0.00 2.65 2.65 50 1019.7
20260503224854 73 221 0.0 0.0 0.00 2.65 2.65 49 1019.9
20260503224351 73 222 0.0 1.0 0.00 2.65 2.65 49 1020.0
20260503223849 73 227 1.0 1.0 0.00 2.65 2.65 48 1020.0
20260503223346 73 232 0.0 0.0 0.00 2.65 2.65 48 1019.9
20260503222842 73 225 0.0 0.0 0.00 2.65 2.65 49 1019.8
20260503222340 74 228 0.0 0.0 0.00 2.65 2.65 49 1019.9
20260503221838 74 238 0.0 0.0 0.00 2.65 2.65 47 1020.0
20260503221337 74 243 0.0 1.0 0.00 2.65 2.65 48 1019.9
20260503220832 74 232 0.0 2.0 0.00 2.65 2.65 49 1020.1
20260503220329 74 260 0.0 2.0 0.00 2.65 2.65 48 1020.3
20260503215826 74 203 0.0 1.0 0.00 2.65 2.65 47 1020.3
20260503215323 74 215 0.0 1.0 0.00 2.65 2.65 49 1020.5
20260503214821 74 215 0.0 2.0 0.00 2.65 2.65 49 1020.2
20260503214318 74 218 0.0 1.0 0.00 2.65 2.65 47 1020.4
20260503213815 75 224 1.0 2.0 0.00 2.65 2.65 48 1020.4
20260503213313 74 343 1.0 2.0 0.00 2.65 2.65 48 1020.2
20260503212810 75 343 1.0 2.0 0.00 2.65 2.65 47 1020.5
20260503212308 74 343 1.0 2.0 0.00 2.65 2.65 46 1020.7
20260503211805 75 17 0.0 1.0 0.00 2.65 2.65 44 1020.5
20260503211302 75 17 0.0 2.0 0.00 2.65 2.65 43 1020.8
20260503210802 75 17 1.0 2.0 0.00 2.65 2.65 42 1020.9
20260503210259 75 17 2.0 2.0 0.00 2.65 2.65 41 1020.8
20260503205754 75 17 0.0 1.0 0.00 2.65 2.65 44 1020.8
20260503205251 75 131 1.0 2.0 0.00 2.65 2.65 43 1021.1
20260503204748 76 167 0.0 0.0 0.00 2.65 2.65 42 1021.1
20260503204245 75 167 0.0 1.0 0.00 2.65 2.65 41 1021.2
20260503203742 76 167 0.0 0.0 0.00 2.65 2.65 39 1021.2
20260503203240 75 271 0.0 2.0 0.00 2.65 2.65 42 1021.3
20260503202737 75 6 1.0 3.0 0.00 2.65 2.65 39 1021.2
20260503202235 75 295 1.0 2.0 0.00 2.65 2.65 37 1021.4
20260503201732 75 340 2.0 3.0 0.00 2.65 2.65 48 1021.5
20260503201229 75 279 1.0 2.0 0.00 2.65 2.65 43 1021.6
20260503200725 75 275 1.0 2.0 0.00 2.65 2.65 43 1021.5
20260503200222 74 274 0.0 1.0 0.00 2.65 2.65 40 1021.7
20260503195719 75 279 1.0 1.0 0.00 2.65 2.65 45 1021.9
20260503195216 75 314 3.0 4.0 0.00 2.65 2.65 39 1021.8
20260503194714 74 351 0.0 3.0 0.00 2.65 2.65 41 1021.7
20260503194209 74 350 0.0 1.0 0.00 2.65 2.65 43 1022.1
20260503193706 74 351 1.0 3.0 0.00 2.65 2.65 38 1022.2
20260503193202 74 332 1.0 3.0 0.00 2.65 2.65 39 1022.3
20260503192658 75 40 1.0 3.0 0.00 2.65 2.65 42 1022.2
20260503192153 75 252 0.0 1.0 0.00 2.65 2.65 40 1022.6
20260503191649 75 43 1.0 1.0 0.00 2.65 2.65 39 1022.3
20260503191146 75 43 0.0 2.0 0.00 2.65 2.65 41 1022.5
20260503190638 75 43 0.0 0.0 0.00 2.65 2.65 43 1022.4
20260503190135 74 43 0.0 0.0 0.00 2.65 2.65 42 1022.5
20260503185632 73 43 0.0 1.0 0.00 2.65 2.65 41 1022.7
20260503185127 74 334 0.0 2.0 0.00 2.65 2.65 37 1022.8
20260503184622 74 269 0.0 1.0 0.00 2.65 2.65 42 1022.8
20260503184118 73 331 1.0 2.0 0.00 2.65 2.65 41 1022.9
20260503183615 73 325 1.0 2.0 0.00 2.65 2.65 38 1023.0
20260503183112 74 195 0.0 2.0 0.00 2.65 2.65 40 1023.1
20260503182610 73 17 2.0 3.0 0.00 2.65 2.65 44 1023.2
20260503182108 74 347 1.0 2.0 0.00 2.65 2.65 39 1023.3
20260503181605 74 28 0.0 1.0 0.00 2.65 2.65 38 1023.4
20260503181101 74 28 0.0 0.0 0.00 2.65 2.65 47 1023.4
20260503180559 73 28 0.0 0.0 0.00 2.65 2.65 44 1023.5
20260503180056 73 28 1.0 2.0 0.00 2.65 2.65 41 1023.5
20260503175553 73 28 0.0 1.0 0.00 2.65 2.65 39 1023.3
20260503175050 73 9 2.0 3.0 0.00 2.65 2.65 41 1023.4
20260503174542 73 281 0.0 0.0 0.00 2.65 2.65 44 1023.5
20260503174038 72 281 2.0 3.0 0.00 2.65 2.65 43 1023.7
20260503173533 72 71 0.0 1.0 0.00 2.65 2.65 43 1023.8
20260503173030 72 71 0.0 0.0 0.00 2.65 2.65 40 1023.7
20260503172527 72 71 0.0 0.0 0.00 2.65 2.65 44 1023.8
20260503172024 72 71 0.0 1.0 0.00 2.65 2.65 43 1023.9
20260503171520 72 71 0.0 1.0 0.00 2.65 2.65 41 1023.8
20260503171018 72 71 0.0 2.0 0.00 2.65 2.65 41 1024.2
20260503170514 72 71 0.0 1.0 0.00 2.65 2.65 42 1024.2